Regional Weather Roundup
Issued by NWS

Home | Current Version | Previous Version | Text Only | Print | Product List | Glossary Off
Versions: 1 2 3 4 5 6 7 8 9 10 11 12 13 14 15 16 17 18 19 20 21 22 23 24 25 26 27 28 29 30 31 32 33 34 35 36 37 38 39 40 41 42 43 44 45 46 47 48 49 50

000
ASUS43 KBIS 212131
RWRND
NORTH DAKOTA REGIONAL WEATHER ROUNDUP
NATIONAL WEATHER SERVICE EASTERN NORTH DAKOTA/GRAND FORKS ND
400 PM CDT SAT APR 21 2018

  NOTE: "FAIR" INDICATES FEW OR NO CLOUDS BELOW 12,000 FEET WITH NO
  SIGNIFICANT WEATHER AND/OR OBSTRUCTIONS TO VISIBILITY.

NDZ001>003-009>011-017-212200-
...NORTHWEST NORTH DAKOTA...

CITY           SKY/WX    TMP DP  RH WIND       PRES   REMARKS
WILLISTON      FAIR      67  40  37 S16G28    30.00F
MINOT          FAIR      65  38  36 S30G40    30.09F
MINOT AFB      SUNNY     63  40  41 S26G38    30.07F
$$

NDZ018>021-031>035-040>046-212200-
...SOUTHWEST NORTH DAKOTA...

CITY           SKY/WX    TMP DP  RH WIND       PRES   REMARKS
BISMARCK       FAIR      63  35  35 S22G29    30.17F
DICKINSON      FAIR      62  37  39 S26G35    30.08R
GARRISON         N/A     59  39  47 S20       30.11F
HETTINGER      FAIR      56  36  47 S25G33    30.15R
$$

NDZ004>008-012>016-024-026-027-054-212200-
...NORTHEAST NORTH DAKOTA...

CITY           SKY/WX    TMP DP  RH WIND       PRES   REMARKS
GRAND FORKS    FAIR      57  43  59 S16       30.27S
GRAND FORKS AF FAIR      58  43  57 S16       30.26F
DEVILS LAKE    FAIR      59  39  47 S22G29    30.21F
$$

NDZ022-023-025-028>030-036>039-047>053-212200-
...SOUTHEAST NORTH DAKOTA...

CITY           SKY/WX    TMP DP  RH WIND       PRES   REMARKS
JAMESTOWN      FAIR      60  40  47 S16G30    30.24F
FARGO          FAIR      61  39  44 S15G24    30.28F
WAHPETON       FAIR      59  36  41 S14       30.30F
$$



USA.gov is the U.S. government's official web portal to all federal, state and local government web resources and services.